[Date Prev][Date Next][Thread Prev][Thread Next] - [Date Index][Thread Index][Author Index]
2 Line ISS Keps 11-28
- Subject: [sarex] 2 Line ISS Keps 11-28
- From: "Dave Larsen PhD" <doc@xxxxxxxxxxx>
- Date: Sun, 28 Nov 2004 01:19:12 -0800
ISS
1 25544U 98067A 04333.20662194 .00030815 00000-0 24697-3 0 2400
2 25544 51.6394 208.6691 0004449 54.6249 40.1655 15.70743635344084
----
Via the sarex mailing list at AMSAT.ORG courtesy of AMSAT-NA.
To unsubscribe, send "unsubscribe sarex" to Majordomo@amsat.org
AMSAT Home